Mackall AAF, NC

4:54 AM EDT on April 23, 2017 (GMT -0400)
Mackall Army Air Field

Weather History for KHFF - August, 2013

Change the Weather History Date:

Saturday, August 10, 2013

  Actual Average Record
Temperature  
Mean Temperature 84 °F -  
Max Temperature 96 °F 88 °F 105 °F (2007)
Min Temperature 74 °F 69 °F 65 °F (2008)
Cooling Degree Days 19    
Growing Degree Days 34 (Base 50)    
Moisture  
Dew Point 72 °F    
Average Humidity 75    
Maximum Humidity 94    
Minimum Humidity 44    
Precipitation  
Precipitation 0.00 in - - ()
Sea Level Pressure  
Sea Level Pressure 30.10 in    
Wind  
Wind Speed 7 mph (SW)    
Max Wind Speed 13 mph    
Max Gust Speed 22 mph    
Visibility 12 miles    
Events Rain , Thunderstorm    
Averages and records for this station are not official NWS values.
T = Trace of Precipitation, MM = Missing Value Source: NWS Daily Summary

Daily Weather History Graph

Daily Weather History Graph

Search for Another Location

Airport or City:

Trip Planner

Search our weather history database for the weather conditions in past years. The results will help you decide how hot, cold, wet, or windy it might be!

Date:

Astronomy

Aug. 10, 2013 Rise Set
Actual Time 6:34 AM EDT 8:11 PM EDT
Civil Twilight 6:07 AM EDT 8:38 PM EDT
Nautical Twilight 5:34 AM EDT 9:11 PM EDT
Astronomical Twilight 4:59 AM EDT 9:45 PM EDT
Moon 10:07 AM EDT (8/10) 10:04 PM EDT (8/10)
Length of Visible Light 14h 31m
Length of Day
13h 37m
Waxing Crescent, 14% of the Moon is Illuminated
Aug 10
Waxing Crescent
Aug 14
First Quarter
Aug 20
Full
Aug 28
Last Quarter
Sep 5
New

Hourly Weather History & Observations

Time (EDT) Temp. Heat Index Dew Point Humidity Pressure Visibility Wind Dir Wind Speed Gust Speed Precip Events Conditions
12:56 AM 79.3 °F - 73.6 °F 82% 30.10 in 12.0 mi SSW 6.9 mph - N/A   Clear
1:56 AM 79.0 °F - 73.4 °F 83% 30.10 in 12.0 mi SSW 9.2 mph - N/A   Clear
2:56 AM 77.7 °F - 73.2 °F 86% 30.09 in 12.0 mi SSW 6.9 mph - N/A   Clear
3:56 AM 75.9 °F - 72.7 °F 90% 30.09 in 12.0 mi South 4.6 mph - N/A   Clear
4:56 AM 74.5 °F - 71.8 °F 91% 30.09 in 12.0 mi South 3.5 mph - N/A   Clear
5:56 AM 74.5 °F - 71.6 °F 91% 30.10 in 12.0 mi SSW 5.8 mph - N/A   Clear
6:56 AM 74.1 °F - 71.6 °F 92% 30.10 in 12.0 mi South 8.1 mph - N/A   Clear
7:56 AM 77.5 °F - 72.1 °F 83% 30.12 in 12.0 mi SW 5.8 mph - N/A   Clear
8:56 AM 81.7 °F 86.3 °F 71.8 °F 72% 30.13 in 12.0 mi West 10.4 mph 17.3 mph N/A   Clear
9:56 AM 84.6 °F 90.3 °F 72.0 °F 66% 30.12 in 12.0 mi WSW 12.7 mph - N/A   Clear
10:56 AM 87.6 °F 93.9 °F 71.6 °F 59% 30.13 in 12.0 mi WSW 12.7 mph 18.4 mph N/A   Clear
11:56 AM 90.0 °F 97.9 °F 73.0 °F 57% 30.12 in 12.0 mi WSW 10.4 mph 18.4 mph N/A   Clear
12:56 PM 91.9 °F 99.5 °F 71.8 °F 52% 30.11 in 12.0 mi SW 9.2 mph 16.1 mph N/A   Scattered Clouds
1:56 PM 94.3 °F 102.2 °F 72.0 °F 48% 30.08 in 12.0 mi WSW 11.5 mph 18.4 mph N/A   Partly Cloudy
2:56 PM 93.7 °F 99.9 °F 69.8 °F 46% 30.07 in 12.0 mi SW 9.2 mph 16.1 mph N/A   Scattered Clouds
3:56 PM 94.5 °F 100.2 °F 69.4 °F 44% 30.06 in 12.0 mi WSW 12.7 mph 17.3 mph N/A   Partly Cloudy
4:56 PM 93.6 °F 99.5 °F 69.8 °F 46% 30.04 in 12.0 mi SSW 11.5 mph 19.6 mph N/A   Scattered Clouds
5:14 PM 93.2 °F 100.5 °F 71.6 °F 49% 30.05 in 12.0 mi SSW 12.7 mph 21.9 mph N/A   Mostly Cloudy
5:56 PM 90.1 °F 96.3 °F 71.1 °F 53% 30.06 in 12.0 mi SSW 10.4 mph 18.4 mph N/A   Mostly Cloudy
6:55 PM 80.6 °F 84.6 °F 71.6 °F 74% 30.09 in 12.0 mi Variable 3.5 mph 13.8 mph N/A Rain Light Rain Showers
6:56 PM 80.6 °F 84.7 °F 72.1 °F 75% 30.09 in 11.0 mi Variable 2.3 mph 12.7 mph N/A Rain Heavy Rain Showers
7:05 PM 78.8 °F - 73.4 °F 83% 30.09 in 6.0 mi East 4.6 mph - N/A Rain , Thunderstorm Thunderstorms and Rain
7:14 PM 78.8 °F - 73.4 °F 83% 30.09 in 7.0 mi Variable 1.2 mph - N/A Thunderstorm Thunderstorm
7:38 PM 78.8 °F - 73.4 °F 83% 30.11 in 12.0 mi SE 3.5 mph - N/A Thunderstorm Scattered Clouds
7:56 PM 78.3 °F - 74.7 °F 89% 30.09 in 12.0 mi SW 1.2 mph - N/A   Mostly Cloudy
8:56 PM 77.5 °F - 75.0 °F 92% 30.12 in 12.0 mi SSW 6.9 mph - N/A   Scattered Clouds
9:19 PM 77.0 °F - 73.4 °F 89% 30.14 in 12.0 mi SW 9.2 mph - N/A Rain Light Rain
9:40 PM 77.0 °F - 73.4 °F 89% 30.12 in 12.0 mi SSW 4.6 mph - N/A   Mostly Cloudy
9:56 PM 76.6 °F - 72.7 °F 87% 30.12 in 12.0 mi SW 3.5 mph - N/A   Mostly Cloudy
10:26 PM 77.0 °F - 71.6 °F 83% 30.12 in 12.0 mi WSW 3.5 mph - N/A Rain Light Rain
10:42 PM 77.0 °F - 73.4 °F 89% 30.12 in 12.0 mi SW 3.5 mph - N/A   Mostly Cloudy
10:56 PM 75.9 °F - 72.9 °F 90% 30.12 in 9.0 mi NNW 2.3 mph - N/A   Mostly Cloudy
11:56 PM 74.7 °F - 72.9 °F 94% 30.11 in 11.0 mi SSE 1.2 mph - N/A   Clear